Dublin, VA

8:29 AM EST on December 09, 2019 (GMT -0500)
New River Valley

Weather History for KPSK - October, 2019

Change the Weather History Date:

Wednesday, October 30, 2019

  Actual Average (WUND) Record (WUND)
Temperature  
Mean Temperature 59 °F -  
Max Temperature 61 °F - - (-1)
Min Temperature 57 °F - - (-1)
Degree Days  
Heating Degree Days 6    
Growing Degree Days 9 (Base 50)    
Moisture  
Dew Point 59 °F    
Average Humidity 99    
Maximum Humidity 100    
Minimum Humidity 97    
Precipitation  
Precipitation 0.12 in - - ()
Sea Level Pressure  
Sea Level Pressure 30.19 in    
Wind  
Wind Speed 1 mph (East)    
Max Wind Speed 8 mph    
Max Gust Speed -    
Visibility 2 miles    
Events Rain    
Averages and records for this station are not official NWS values.
T = Trace of Precipitation, MM = Missing Value Source: NWS Daily Summary

Daily Weather History Graph

Daily Weather History Graph

Search for Another Location

Airport or City:

Astronomy

Oct. 30, 2019 Rise Set
Actual Time 7:44 AM EDT 6:27 PM EDT
Civil Twilight 7:17 AM EDT 6:54 PM EDT
Nautical Twilight 6:47 AM EDT 7:24 PM EDT
Astronomical Twilight 6:16 AM EDT 7:55 PM EDT
Moon 10:23 AM EDT (10/30) 8:37 PM EDT (10/30)
Length of Visible Light 11h 36m
Length of Day
10h 42m
Waxing Crescent, 8% of the Moon is Illuminated
Oct 30
Waxing Crescent
Nov 4
First Quarter
Nov 12
Full
Nov 19
Last Quarter
Nov 26
New

Hourly Weather History & Observations

Time (EDT) Temp. Dew Point Humidity Pressure Visibility Wind Dir Wind Speed Gust Speed Precip Events Conditions
12:15 AM 57.2 °F 57.0 °F 99% 30.28 in 1.5 mi Calm Calm - N/A   Overcast
12:35 AM 57.0 °F 56.8 °F 99% 30.27 in 1.5 mi Calm Calm - N/A   Overcast
12:55 AM 57.2 °F 56.8 °F 99% 30.26 in 2.0 mi Calm Calm - N/A   Overcast
1:15 AM 57.2 °F 57.2 °F 100% 30.27 in 1.8 mi Calm Calm - N/A   Overcast
1:35 AM 57.2 °F 57.2 °F 100% 30.26 in 1.2 mi Calm Calm - N/A   Overcast
1:55 AM 57.2 °F 57.2 °F 100% 30.26 in 1.2 mi Calm Calm - N/A   Overcast
2:15 AM 57.2 °F 57.2 °F 100% 30.26 in 1.2 mi Calm Calm - N/A   Overcast
2:35 AM 57.2 °F 57.2 °F 100% 30.25 in 1.5 mi Calm Calm - N/A   Overcast
2:55 AM 57.2 °F 57.2 °F 100% 30.25 in 2.5 mi Calm Calm - N/A   Overcast
3:15 AM 57.0 °F 57.0 °F 100% 30.25 in 1.2 mi NE 3.5 mph - N/A   Overcast
3:35 AM 57.2 °F 57.2 °F 100% 30.24 in 1.5 mi Calm Calm - N/A   Overcast
3:55 AM 57.2 °F 57.2 °F 100% 30.24 in 1.2 mi Calm Calm - N/A   Overcast
4:15 AM 57.2 °F 57.2 °F 100% 30.24 in 1.5 mi Calm Calm - N/A   Overcast
4:35 AM 57.4 °F 57.2 °F 99% 30.23 in 2.0 mi Calm Calm - N/A   Overcast
4:55 AM 57.4 °F 57.2 °F 99% 30.24 in 1.5 mi Calm Calm - N/A   Overcast
5:15 AM 57.4 °F 57.2 °F 99% 30.24 in 1.8 mi Calm Calm - N/A   Overcast
5:35 AM 57.4 °F 57.2 °F 99% 30.24 in 2.5 mi Calm Calm - N/A   Overcast
5:55 AM 57.4 °F 57.2 °F 99% 30.25 in 1.2 mi Calm Calm - N/A   Overcast
6:15 AM 57.6 °F 57.2 °F 99% 30.25 in 1.2 mi Calm Calm - N/A   Overcast
6:35 AM 57.6 °F 57.2 °F 99% 30.25 in 1.5 mi Calm Calm - N/A   Overcast
6:55 AM 57.6 °F 57.2 °F 99% 30.25 in 1.5 mi Calm Calm - N/A   Overcast
7:15 AM 57.7 °F 57.4 °F 99% 30.25 in 1.5 mi Calm Calm - N/A   Overcast
7:35 AM 57.7 °F 57.4 °F 99% 30.25 in 1.5 mi East 3.5 mph - N/A   Overcast
7:55 AM 58.1 °F 57.6 °F 98% 30.26 in 2.5 mi Calm Calm - N/A   Overcast
8:15 AM 58.1 °F 57.7 °F 99% 30.27 in 1.0 mi Calm Calm - N/A   Overcast
8:35 AM 58.1 °F 57.6 °F 98% 30.27 in 1.5 mi Calm Calm - N/A   Overcast
8:55 AM 58.1 °F 57.7 °F 99% 30.27 in 4.0 mi Calm Calm - N/A   Overcast
9:15 AM 58.5 °F 57.9 °F 98% 30.28 in 0.8 mi Calm Calm - N/A   Overcast
9:35 AM 58.5 °F 58.1 °F 99% 30.27 in 1.0 mi ENE 3.5 mph - N/A   Overcast
9:55 AM 59.2 °F 58.5 °F 97% 30.27 in 1.0 mi East 3.5 mph - N/A Rain Rain
10:15 AM 59.4 °F 58.5 °F 97% 30.26 in 1.2 mi East 3.5 mph - N/A Rain Light Rain
10:35 AM 59.7 °F 58.8 °F 97% 30.26 in 1.2 mi East 3.5 mph - N/A   Overcast
10:55 AM 59.9 °F 59.0 °F 97% 30.26 in 1.0 mi East 3.5 mph - N/A   Overcast
11:15 AM 60.1 °F 59.5 °F 98% 30.25 in 1.2 mi East 3.5 mph - N/A Rain Light Rain
11:35 AM 60.4 °F 59.9 °F 98% 30.25 in 1.8 mi East 4.6 mph - N/A   Light Drizzle
11:55 AM 61.0 °F 60.3 °F 97% 30.24 in 3.0 mi East 4.6 mph - N/A   Overcast
12:15 PM 60.8 °F 60.1 °F 97% 30.24 in 4.0 mi ENE 5.8 mph - N/A   Overcast
12:35 PM 60.8 °F 60.1 °F 97% 30.23 in 4.0 mi ENE 4.6 mph - N/A   Overcast
12:55 PM 61.0 °F 60.3 °F 97% 30.22 in 4.0 mi East 4.6 mph - N/A Rain Light Rain
1:15 PM 61.2 °F 60.8 °F 99% 30.21 in 4.0 mi ENE 3.5 mph - N/A Rain Light Rain
1:35 PM 61.3 °F 61.0 °F 99% 30.19 in 3.0 mi Calm Calm - N/A   Drizzle
1:55 PM 61.3 °F 61.2 °F 99% 30.19 in 2.0 mi Calm Calm - N/A Rain Rain
2:15 PM 61.7 °F 61.7 °F 100% 30.18 in 2.0 mi East 3.5 mph - 0.01 in Rain Rain
2:35 PM 61.7 °F 61.7 °F 100% 30.17 in 1.8 mi Calm Calm - 0.02 in Rain Light Rain
3:15 PM 61.9 °F 61.9 °F 100% 30.15 in 1.2 mi ESE 5.8 mph - 0.01 in Rain Rain
3:35 PM 61.7 °F 61.7 °F 100% 30.15 in 1.5 mi ESE 4.6 mph - 0.03 in Rain Rain
3:55 PM 61.7 °F 61.7 °F 100% 30.15 in 1.2 mi ESE 5.8 mph - 0.04 in Rain Light Rain
4:15 PM 61.5 °F 61.5 °F 100% 30.14 in 1.5 mi East 8.1 mph - 0.01 in Rain Rain
4:35 PM 61.3 °F 61.3 °F 100% 30.13 in 1.8 mi ESE 5.8 mph - 0.02 in Rain Rain
4:55 PM 61.2 °F 61.2 °F 100% 30.13 in 1.2 mi ESE 4.6 mph - 0.04 in Rain Rain
5:15 PM 61.2 °F 61.2 °F 100% 30.12 in 2.0 mi ESE 3.5 mph - N/A Rain Light Rain
5:35 PM 61.0 °F 61.0 °F 100% 30.12 in 1.2 mi ESE 3.5 mph - 0.01 in Rain Rain
5:55 PM 61.0 °F 61.0 °F 100% 30.12 in 3.0 mi East 3.5 mph - 0.02 in Rain Light Rain
6:15 PM 60.8 °F 60.8 °F 100% 30.11 in 2.5 mi East 4.6 mph - N/A Rain Rain
6:35 PM 60.6 °F 60.6 °F 100% 30.11 in 10.0 mi ENE 4.6 mph - N/A Rain Light Rain
6:55 PM 60.4 °F 60.4 °F 100% 30.11 in 10.0 mi ENE 5.8 mph - N/A Rain Rain
7:15 PM 60.3 °F 60.3 °F 100% 30.11 in 10.0 mi ENE 3.5 mph - N/A   Overcast
7:35 PM 60.3 °F 60.3 °F 100% 30.10 in 10.0 mi Calm Calm - N/A   Overcast
7:55 PM 60.3 °F 60.3 °F 100% 30.10 in 10.0 mi Calm Calm - N/A   Overcast
8:15 PM 60.3 °F 60.3 °F 100% 30.10 in 4.0 mi Calm Calm - N/A   Overcast
8:35 PM 60.3 °F 60.3 °F 100% 30.10 in 4.0 mi ENE 3.5 mph - N/A Rain Rain
8:55 PM 60.3 °F 60.3 °F 100% 30.10 in 4.0 mi Calm Calm - N/A Rain Light Rain
9:15 PM 60.1 °F 60.1 °F 100% 30.10 in 2.0 mi Calm Calm - N/A   Heavy Drizzle
9:35 PM 60.1 °F 60.1 °F 100% 30.09 in 1.2 mi ENE 3.5 mph - N/A   Light Drizzle
9:55 PM 60.1 °F 60.1 °F 100% 30.10 in 2.0 mi East 3.5 mph - N/A   Overcast
10:15 PM 60.1 °F 60.1 °F 100% 30.09 in 2.0 mi ENE 4.6 mph - N/A   Overcast
10:35 PM 60.1 °F 60.1 °F 100% 30.08 in 2.5 mi ENE 3.5 mph - N/A   Drizzle
10:55 PM 60.1 °F 60.1 °F 100% 30.07 in 1.8 mi Calm Calm - N/A   Overcast
11:15 PM 60.3 °F 60.3 °F 100% 30.06 in 1.2 mi Calm Calm - N/A   Overcast
11:35 PM 60.4 °F 60.4 °F 100% 30.05 in 1.0 mi NE 3.5 mph - N/A Rain Rain
11:55 PM 60.3 °F 60.3 °F 100% 30.05 in 0.8 mi NE 3.5 mph - N/A   Drizzle